Theta_e
310 310 310 309 309 309 309 309 310 311 311 312 312 312 312 312 312 312 313 313 313 313 313 312 312 312 312 313 313 313 314 315 315 314 313 313 312 313 314 314 314 314 313 313 314 313 312 311 311 311 311 311 311 311 310 310 310 309 310 309 309 310 311 311 311 311 312 313 313 314 316 318 319 321 322 322 322 323 323 323 322 322 321 321 321 321 321
309 309 309 308 308 308 308 309 309 309 310 311 312 312 312 312 312 312 312 313 313 313 312 312 312 312 312 312 313 313 313 314 313 313 312 311 311 312 312 312 312 312 312 313 313 312 311 311 311 311 310 310 311 310 309 309 308 308 308 308 309 309 309 309 310 309 310 312 312 313 313 314 315 316 318 319 321 322 322 323 323 322 321 322 322 322 322
309 308 308 308 308 309 308 309 309 309 310 310 310 311 312 312 312 312 312 313 313 312 312 312 312 312 311 311 311 312 311 313 313 313 312 311 311 311 311 311 311 311 311 311 312 311 310 310 310 309 309 308 310 310 309 308 307 307 308 308 308 308 308 308 308 308 308 309 310 311 312 312 313 314 315 316 318 320 321 321 322 322 322 322 322 322 322
308 308 308 308 308 308 308 309 310 310 310 310 310 311 311 311 311 312 311 312 312 311 311 311 310 311 311 310 311 312 311 312 313 313 312 311 311 311 311 310 310 310 310 310 311 310 309 309 309 309 308 307 308 309 308 307 307 307 307 308 308 308 308 307 306 306 307 308 308 309 310 311 312 313 314 314 315 317 319 319 320 321 321 321 321 321 321
309 308 307 308 308 308 308 309 310 309 309 309 309 309 310 311 311 310 310 310 311 311 310 310 310 311 310 310 310 310 310 311 312 312 312 311 311 311 310 309 309 309 309 310 310 309 309 308 308 307 307 307 308 309 308 307 308 307 307 307 308 308 308 307 307 307 307 307 308 308 309 309 310 311 313 313 314 315 317 318 319 319 320 320 320 320 320
308 308 308 308 308 307 307 309 309 309 309 309 309 309 310 310 310 309 310 310 310 311 311 310 310 310 310 310 311 311 311 311 312 312 312 311 311 310 309 308 308 308 309 310 309 308 308 308 308 307 307 308 308 308 308 307 307 307 307 307 307 307 307 307 307 307 307 307 308 308 308 309 309 309 310 311 313 314 315 317 318 319 319 319 320 320 320
307 307 307 308 308 308 308 309 308 308 308 308 308 308 308 308 309 310 310 310 310 310 310 309 310 310 310 310 310 310 310 310 312 312 312 311 310 309 309 308 309 309 309 308 308 308 308 307 307 307 307 307 308 308 307 307 307 307 307 307 306 307 307 307 307 307 308 308 308 308 308 308 309 310 310 311 312 312 313 315 316 317 318 318 319 319 319
306 306 306 306 307 308 307 308 307 307 307 307 307 307 307 308 309 309 308 308 308 309 308 308 309 309 309 309 309 309 309 310 311 311 311 311 309 309 309 309 310 309 309 307 307 307 307 307 306 307 307 307 307 307 307 307 307 307 307 306 307 307 307 306 307 307 308 308 308 308 308 308 309 309 310 311 312 312 312 313 315 316 316 317 318 318 319
305 306 306 306 307 307 307 307 308 308 308 307 307 308 308 308 308 308 307 307 307 307 307 307 307 308 308 309 308 307 307 308 309 309 310 310 309 309 309 309 309 308 307 306 306 306 306 306 306 306 306 307 307 307 307 307 307 307 307 307 307 307 306 306 306 307 308 308 308 308 308 308 308 309 309 310 311 312 313 313 313 315 315 316 316 317 317
305 305 305 306 306 306 307 308 308 308 307 308 308 307 307 307 307 306 306 306 306 306 306 306 306 307 308 308 307 306 306 306 306 306 307 307 308 307 307 306 306 306 305 305 305 305 305 305 305 305 306 307 307 307 307 307 308 307 307 307 307 307 306 306 307 307 307 307 307 308 307 307 308 308 309 309 310 312 313 313 314 314 314 314 315 316 317
305 305 305 305 305 306 307 308 307 306 306 307 307 306 305 305 306 305 304 305 305 305 306 306 306 306 307 307 306 305 305 305 305 304 305 306 306 305 305 305 304 304 304 304 304 303 304 304 305 305 305 306 306 306 306 307 307 307 307 306 306 307 306 306 306 307 307 307 308 308 308 308 307 308 309 309 310 311 312 313 313 313 313 314 314 315 314
304 305 305 305 305 306 307 306 305 304 305 305 305 304 304 304 305 304 304 304 304 305 305 305 305 305 306 306 305 304 304 305 305 304 304 305 305 304 304 304 304 304 303 303 303 303 304 304 304 304 304 304 305 305 305 306 306 307 307 307 306 306 306 305 306 306 307 307 308 308 308 308 309 309 309 310 310 311 312 312 312 312 312 313 313 311 310
304 304 304 304 304 305 305 304 303 304 304 304 303 303 303 303 304 304 304 303 303 304 304 304 304 304 305 305 304 304 304 304 305 305 304 304 304 304 303 303 303 302 303 303 303 303 304 304 304 304 304 304 304 304 304 305 305 306 306 306 306 306 305 305 305 305 306 306 307 308 308 308 309 309 310 310 311 312 312 311 311 312 312 312 310 307 306
303 303 304 303 304 304 304 303 303 303 304 303 302 302 302 303 303 303 303 303 303 303 303 303 303 303 304 303 303 303 303 303 304 304 304 304 304 303 303 303 302 302 302 303 302 303 303 303 303 304 304 304 304 304 304 304 305 305 305 305 305 305 305 305 305 305 306 307 307 308 308 309 309 310 310 311 311 311 311 311 312 312 311 309 307 305 303
303 303 303 303 303 303 303 302 302 302 302 302 301 301 302 302 302 302 302 302 302 302 302 302 302 302 303 303 303 303 303 303 303 304 304 304 303 303 303 303 302 302 302 302 302 302 302 302 303 303 303 304 304 304 304 304 304 304 304 304 305 305 305 305 305 305 306 306 307 308 309 309 310 310 310 311 311 311 312 311 311 310 308 307 305 303 301
302 301 302 302 301 301 301 301 301 301 301 301 300 300 301 301 301 301 301 301 301 301 301 301 301 301 302 302 302 302 302 303 303 303 304 303 303 303 303 302 302 302 302 302 302 302 302 302 302 302 303 303 303 304 304 304 303 303 303 304 304 304 304 304 305 305 306 306 307 308 308 309 309 309 310 310 310 311 311 310 309 308 307 305 303 302 301
301 301 301 301 300 300 300 300 300 300 300 300 300 300 300 300 300 300 300 300 300 300 300 300 300 300 301 301 301 302 302 302 302 303 303 303 303 302 302 302 302 302 302 302 302 302 302 302 302 302 302 303 303 304 304 303 304 303 303 304 304 304 304 304 305 305 306 306 307 307 308 308 309 309 309 310 310 310 309 309 308 307 306 304 303 301 301
299 300 300 300 299 300 299 299 299 300 299 299 299 299 299 299 299 299 299 299 299 299 299 299 299 300 300 300 300 301 301 301 301 302 302 302 302 302 302 302 302 302 302 302 302 302 302 302 302 302 302 302 303 303 304 304 304 304 304 304 304 305 305 305 305 305 305 306 306 306 306 307 308 308 309 309 309 308 308 308 307 306 305 303 301 301 300
298 298 298 299 299 299 299 298 298 299 299 299 299 299 298 298 299 298 298 299 299 299 299 298 299 299 299 299 299 299 300 300 300 301 301 301 301 301 301 301 301 301 302 302 302 303 303 303 303 303 303 303 303 303 303 304 304 304 304 304 304 305 305 305 305 305 305 305 305 306 306 307 308 308 308 308 307 307 307 307 306 305 303 301 300 300 299
297 297 298 298 298 298 298 298 298 298 298 298 298 298 298 298 298 298 298 298 298 298 298 298 298 298 299 299 299 299 299 299 299 300 301 301 301 301 301 301 301 301 302 302 302 302 303 303 303 303 303 303 303 303 303 303 303 304 304 304 304 305 305 305 305 305 305 305 306 306 307 308 308 308 307 306 306 306 305 305 304 303 301 300 299 299 298
297 297 297 297 297 297 297 297 298 298 298 298 298 298 297 297 297 298 298 298 298 298 298 298 298 298 298 298 298 298 298 299 299 300 301 300 300 301 301 301 301 301 301 302 302 302 302 303 303 303 303 303 303 303 303 303 303 303 304 304 304 305 305 305 305 305 305 305 306 307 308 307 306 306 305 305 305 304 303 303 302 301 299 298 298 298 297
296 297 297 297 297 296 296 297 297 297 297 297 297 297 297 297 298 298 298 299 299 299 299 299 299 298 298 298 299 298 298 299 300 300 300 301 301 301 301 301 301 301 302 302 302 303 303 303 303 303 303 303 303 303 303 303 304 304 304 304 305 305 305 305 305 305 306 306 307 307 306 304 303 302 303 303 302 300 299 299 298 298 297 298 297 296 296
296 296 296 297 296 296 296 297 297 297 298 298 298 298 298 298 298 299 298 298 298 298 299 299 299 299 299 299 299 299 299 300 301 301 301 301 302 301 301 302 302 302 302 302 302 302 302 303 303 303 303 304 304 303 303 304 304 304 304 305 305 305 305 305 305 306 306 306 306 306 304 302 300 299 299 299 298 297 296 296 296 296 296 296 296 295 295
296 296 296 297 297 297 297 297 297 298 298 298 298 298 298 298 299 298 298 298 298 297 298 298 299 299 300 300 300 300 300 301 301 301 301 301 301 301 301 301 301 301 301 301 301 302 302 302 302 302 303 303 303 303 304 304 304 304 304 305 305 305 306 306 306 306 306 306 305 303 302 301 300 298 297 296 295 296 296 296 296 296 296 296 296 295 295
296 297 297 297 297 297 297 297 297 298 299 299 298 297 298 297 298 298 298 298 298 298 297 298 298 299 299 300 300 299 300 300 300 300 300 300 300 299 300 300 300 301 301 301 301 301 301 301 301 301 302 302 302 302 303 303 304 304 304 305 305 305 305 306 306 306 305 304 302 301 300 300 299 297 296 296 295 295 295 295 296 296 295 295 294 293 293
297 297 297 297 297 297 297 297 297 297 298 298 297 297 297 297 297 298 298 298 298 298 297 298 298 298 298 299 299 299 300 299 299 299 299 299 299 299 299 299 299 300 300 300 300 300 300 300 300 300 300 301 301 301 301 302 302 303 304 304 305 306 306 306 306 305 304 302 300 300 299 298 297 296 296 296 295 294 294 293 293 293 292 291 291 291 291
297 297 296 296 296 297 297 296 296 297 297 297 297 297 297 298 297 297 298 298 298 298 298 298 298 298 299 299 299 298 298 298 298 298 298 298 298 298 298 298 298 298 298 298 299 299 299 299 299 299 299 299 300 300 301 301 302 303 303 304 304 305 304 304 304 303 302 300 299 299 297 297 296 296 295 294 294 294 294 293 293 292 292 291 290 290 290
296 296 296 296 296 296 296 296 296 297 297 297 297 297 297 298 297 298 297 297 298 298 298 298 297 297 297 297 296 297 297 297 297 297 297 297 297 297 297 297 297 297 297 298 298 298 298 298 298 298 298 299 299 300 301 301 302 302 302 303 303 303 302 302 302 301 300 299 298 297 297 296 296 296 295 294 295 295 295 294 294 293 293 292 291 290 290
295 295 295 296 296 296 296 296 297 297 297 297 297 297 297 296 297 296 296 296 296 296 296 296 295 295 295 295 294 295 295 295 295 295 295 295 295 295 295 296 296 296 297 298 298 297 297 297 297 297 297 297 298 299 299 300 300 300 300 301 301 300 300 300 300 299 298 298 297 296 296 295 295 295 295 295 295 295 295 295 295 294 294 293 291 290 290
296 296 295 296 296 296 296 296 296 296 296 296 296 295 295 295 295 294 294 294 294 294 294 294 294 294 294 293 293 293 294 294 294 293 293 293 293 293 293 294 295 296 296 296 296 296 296 296 296 296 296 296 296 297 297 298 298 298 298 298 298 298 298 298 297 297 297 296 296 295 295 295 295 295 295 295 295 296 296 296 295 295 295 294 293 292 292
296 296 296 296 296 296 296 296 296 296 295 294 294 294 294 294 293 293 293 293 293 293 293 293 293 293 292 292 292 292 292 292 291 291 291 292 292 292 292 293 294 294 294 294 294 295 295 296 296 297 297 297 297 297 297 297 297 297 297 297 297 297 297 297 296 296 296 296 295 295 295 296 296 296 296 296 296 296 296 296 296 296 296 295 295 295 296
295 296 296 296 295 295 295 295 295 295 294 294 293 293 294 293 293 293 292 292 292 292 292 292 292 291 291 291 291 290 291 290 290 290 290 291 291 291 292 292 293 293 293 293 293 294 295 296 296 297 298 298 298 298 298 298 297 297 297 297 297 297 297 297 296 296 296 296 296 296 296 296 296 296 296 296 296 297 297 297 297 297 297 297 297 297 296
296 296 296 295 295 295 295 295 295 294 294 293 293 294 294 294 293 293 292 292 292 291 291 290 290 290 290 290 290 290 290 290 290 290 290 291 291 291 292 292 292 292 292 293 293 293 293 294 295 297 297 298 298 298 298 298 298 298 298 297 297 297 297 297 296 297 296 297 297 297 297 297 297 297 297 297 297 297 297 297 297 298 298 298 298 295 294
296 295 295 295 295 295 295 294 294 294 294 294 294 294 293 293 293 293 292 292 291 290 290 289 289 289 289 290 290 289 289 289 289 289 289 290 291 291 292 292 292 292 292 292 292 292 292 292 294 295 297 297 298 298 298 298 298 298 298 298 297 297 297 297 297 297 297 297 297 297 297 297 297 297 297 297 298 298 297 298 298 298 298 298 297 295 293
296 296 295 295 295 295 294 294 294 293 293 293 292 293 292 292 292 291 291 290 290 289 289 289 289 289 289 289 289 289 289 289 289 289 289 290 290 291 291 292 292 291 291 290 291 292 292 292 292 294 296 296 297 297 298 298 298 298 298 298 297 297 297 297 297 297 297 297 297 297 297 297 297 297 298 298 298 298 297 297 297 297 297 298 297 296 294
296 295 295 295 295 295 294 294 294 294 293 292 292 292 292 292 291 291 290 290 289 289 289 289 289 289 290 290 289 289 289 289 289 289 289 289 290 290 290 290 290 291 290 290 290 291 292 292 292 293 294 295 295 296 297 298 298 298 297 297 297 297 297 297 297 297 297 297 296 296 296 297 297 297 297 298 298 297 297 296 296 296 297 296 296 295 295
295 295 295 295 295 295 294 294 294 294 294 293 293 292 292 292 291 291 290 289 289 289 289 289 289 290 290 290 290 289 289 289 289 289 289 289 289 289 289 289 289 289 289 289 289 289 291 292 292 292 293 293 294 295 296 297 298 298 297 297 297 297 297 297 297 297 297 296 296 296 296 296 296 297 297 296 296 296 296 296 296 296 296 295 295 295 295
295 295 295 295 295 295 294 294 294 294 294 294 293 293 292 292 291 291 290 290 289 289 289 290 290 290 290 290 290 290 289 289 290 289 289 289 288 288 288 288 288 288 288 288 288 289 290 292 292 292 292 293 293 294 295 296 297 297 297 296 296 296 297 296 297 296 296 296 296 296 296 296 296 296 295 295 295 294 294 294 294 295 295 295 294 294 294
295 295 295 295 295 294 294 294 293 294 294 294 294 293 292 292 291 291 290 290 290 290 290 291 291 291 291 291 290 290 290 289 290 290 289 289 289 288 288 288 288 288 288 287 287 288 289 291 292 292 292 292 293 293 294 295 296 296 296 296 295 296 296 295 295 295 295 295 294 294 294 294 294 294 294 294 294 293 293 292 293 293 294 294 293 293 293
295 295 295 294 294 294 294 293 293 293 293 293 292 292 292 291 291 291 290 290 290 290 290 291 291 291 291 291 291 290 290 289 289 290 290 290 289 289 288 288 288 288 288 288 287 287 287 289 291 292 291 291 291 292 293 293 294 295 295 295 295 294 295 295 294 294 294 294 294 294 293 292 292 293 293 293 293 293 293 293 292 293 293 293 292 292 291
295 295 294 294 294 294 294 294 293 293 292 292 292 291 291 290 290 290 290 290 290 290 290 290 290 291 291 291 291 291 290 290 289 289 289 290 290 289 289 288 288 288 288 289 288 287 286 287 289 290 291 290 291 291 292 293 293 293 294 294 294 293 293 293 294 294 294 294 294 294 293 292 292 292 292 292 293 292 292 292 292 292 292 292 292 291 291
295 295 295 295 295 295 295 294 293 293 292 292 292 291 290 290 290 289 289 290 290 290 290 290 290 290 290 290 291 291 290 290 290 289 288 288 289 289 289 289 288 287 288 289 289 288 287 287 287 288 289 289 290 290 291 292 292 292 292 292 292 293 293 293 293 293 293 293 293 293 293 292 292 292 291 291 291 291 291 291 291 291 291 291 291 290 290
295 295 295 295 295 295 294 294 293 293 292 292 291 291 291 290 290 289 289 289 289 290 290 290 290 290 290 290 290 290 290 290 290 290 289 288 287 287 288 288 287 287 288 289 289 288 287 287 287 287 288 288 289 289 290 291 291 291 291 291 291 292 292 292 293 293 292 292 292 292 292 292 292 291 291 291 290 290 289 289 289 289 289 289 289 288 288
295 295 295 295 295 295 294 294 293 293 292 292 291 291 291 290 290 290 290 289 289 289 289 290 290 290 290 290 289 289 289 289 289 289 289 288 287 286 286 286 286 286 286 288 288 288 287 286 287 287 288 288 288 289 289 290 290 290 290 290 290 290 290 291 291 291 291 291 291 291 290 290 290 290 289 289 288 288 288 288 288 288 287 287 287 286 286
296 296 296 295 295 295 294 294 293 293 292 291 291 291 291 291 290 290 290 290 289 289 289 289 289 290 290 290 289 289 289 288 288 288 288 288 287 286 285 285 285 285 285 286 287 287 286 286 286 287 288 289 289 289 289 289 289 289 289 289 289 289 289 289 289 290 290 290 290 289 289 289 288 288 288 287 287 287 286 286 287 287 286 286 285 285 284
296 296 296 296 296 295 294 294 293 292 292 292 291 291 291 291 291 290 290 290 289 289 289 288 288 289 289 290 290 289 289 288 288 287 287 287 286 285 284 284 284 284 284 285 286 286 285 286 286 287 288 288 289 289 289 289 289 289 289 289 289 288 288 288 288 288 288 288 288 288 288 288 288 287 287 287 286 286 285 285 286 286 285 285 284 284 283
296 296 296 296 296 295 294 294 293 292 292 293 292 291 291 291 291 290 290 290 289 289 288 288 288 288 288 289 289 289 289 288 288 287 287 286 286 285 285 284 284 284 284 284 284 285 285 286 286 287 287 288 288 289 289 288 288 288 288 288 288 288 288 288 288 288 287 287 287 287 287 287 287 287 286 286 286 286 285 285 284 284 284 284 284 283 283
296 296 297 297 296 295 294 294 293 293 293 293 292 291 291 290 290 290 290 290 290 290 289 288 288 288 287 287 288 288 288 288 287 287 286 286 286 285 284 284 284 285 285 285 285 284 284 285 286 286 287 287 288 287 287 287 287 287 287 287 286 286 286 287 287 287 287 287 286 286 286 286 286 286 286 286 285 285 285 285 284 283 283 283 283 283 282
297 297 297 297 296 295 294 293 293 293 293 293 292 291 291 291 291 291 290 290 290 290 290 289 289 288 288 287 287 287 287 287 287 286 286 285 285 285 284 283 283 284 286 286 286 284 284 284 285 285 286 287 287 287 286 286 286 286 286 285 285 285 285 285 285 286 286 286 285 285 286 285 285 285 285 285 285 285 285 284 283 282 283 283 283 282 282
297 297 297 297 296 295 294 293 293 293 293 292 292 291 291 292 292 291 291 290 290 290 289 289 289 288 288 287 287 287 286 286 286 285 285 285 284 284 284 283 283 284 285 286 286 285 284 284 284 285 285 285 285 285 285 285 285 285 285 285 284 284 284 284 284 284 284 285 285 285 285 285 285 284 284 284 284 283 283 283 282 282 282 282 282 282 281
297 297 296 296 295 294 294 293 293 293 293 292 292 292 291 292 292 291 290 290 290 290 290 289 289 288 288 287 287 286 286 286 286 286 285 285 284 284 283 284 284 284 284 285 285 285 284 284 284 284 285 285 284 284 284 284 284 284 284 284 284 284 283 283 283 283 283 284 284 284 284 284 283 283 283 283 282 282 281 282 282 282 281 281 281 281 281
296 296 296 295 294 294 293 293 293 293 293 292 292 292 291 292 292 291 289 288 289 290 290 289 288 288 288 287 286 285 285 285 285 285 285 285 285 285 284 284 284 284 284 285 285 285 285 284 283 283 283 284 284 283 283 284 284 284 283 283 283 283 283 283 283 282 283 283 283 283 283 283 282 282 282 282 282 281 281 281 281 281 281 280 279 280 281
Wind_Speed
15 16 17 17 16 15 16 17 16 17 18 18 16 15 16 14 11 12 14 15 14 12 10 9 8 7 7 8 8 8 7 8 8 8 8 8 8 7 7 7 7 7 7 7 7 7 7 8 8 8 8 8 8 8 7 7 7 6 6 5 4 3 2 2 2 3 3 3 2 2 3 4 5 8 11 14 17 17 17 16 17 19 20 20 21 22 22
15 16 17 17 16 16 17 19 19 18 19 20 19 19 19 19 18 18 18 19 18 14 12 12 11 8 7 7 8 8 9 10 10 9 9 9 8 7 7 7 7 7 7 7 7 7 6 6 7 6 6 6 6 7 6 5 5 4 4 3 3 2 2 2 3 4 4 4 4 4 4 5 6 7 8 10 12 12 14 15 16 18 20 20 20 21 22
13 15 16 17 17 18 18 20 20 20 20 20 19 19 18 18 19 19 19 18 15 12 11 12 12 11 10 10 10 11 10 11 11 11 10 10 9 8 7 7 7 7 7 6 7 7 6 5 5 5 4 3 4 5 4 4 3 3 3 3 2 2 3 3 3 4 4 4 5 5 6 6 7 7 8 9 9 9 11 13 15 17 19 19 19 19 20
11 13 15 17 17 18 19 20 20 20 19 17 17 16 15 15 16 17 17 14 11 9 10 12 13 15 15 13 13 13 12 12 13 12 11 10 9 9 8 7 7 7 7 6 5 5 4 4 4 4 3 2 3 4 3 3 3 3 3 2 3 3 3 4 5 5 5 5 6 6 6 7 7 8 8 9 9 10 11 12 13 14 16 17 18 18 19
11 13 15 15 14 13 13 12 13 17 18 18 19 18 17 17 16 14 13 12 10 11 11 10 12 14 14 12 11 12 12 12 12 12 12 11 9 8 8 7 6 6 5 6 5 4 2 2 3 3 2 2 2 2 2 2 2 2 3 3 3 4 5 5 6 6 6 6 7 7 7 8 8 8 9 9 10 10 11 11 12 13 15 15 17 18 18
11 14 14 12 11 11 8 3 4 9 12 14 15 15 15 16 14 12 12 11 11 11 10 10 12 14 11 8 7 8 7 7 8 10 11 10 9 8 8 7 6 5 4 4 4 2 1 2 2 2 2 1 1 0 1 1 2 3 4 4 4 5 6 6 6 6 6 7 7 8 8 9 9 9 10 10 10 10 11 12 12 13 14 15 17 17 17
10 11 11 11 12 11 7 3 2 4 7 8 9 11 12 12 11 11 13 12 11 11 10 10 12 13 11 9 8 8 8 7 8 9 10 9 8 9 8 5 4 3 2 2 1 0 0 1 2 3 2 1 2 2 2 2 3 4 5 5 5 6 6 7 7 7 7 7 7 8 9 9 10 11 11 11 11 11 12 12 12 13 14 14 16 17 17
9 9 9 11 10 7 6 7 5 3 5 7 8 10 10 7 6 8 11 10 8 9 9 8 9 11 11 9 8 6 6 5 6 8 8 7 8 9 8 6 4 1 1 2 1 1 2 3 4 4 3 3 4 4 4 5 5 5 6 7 7 7 7 8 8 7 7 8 8 9 10 10 11 11 11 12 12 12 12 12 13 13 13 14 15 16 18
8 9 10 10 10 10 9 6 2 1 4 5 5 8 8 3 3 6 8 9 8 7 8 8 7 8 9 8 4 1 3 2 3 4 3 1 3 4 4 5 5 3 4 4 2 2 3 4 5 6 6 5 6 6 6 7 7 7 8 8 8 8 8 9 9 8 8 9 9 9 10 10 11 11 11 12 12 12 13 13 13 13 14 13 13 15 17
7 9 9 8 10 10 4 2 5 5 3 4 4 7 6 2 1 4 7 9 9 7 8 9 8 7 8 7 3 3 4 2 3 4 3 1 0 0 1 3 5 5 4 4 4 5 6 7 7 7 7 7 7 8 9 8 9 9 9 10 9 10 10 10 9 9 10 10 10 10 10 11 12 12 12 13 13 12 12 13 14 14 13 13 12 13 15
8 9 8 8 8 4 3 5 4 4 4 5 4 7 5 1 2 4 6 9 9 7 8 9 8 8 7 5 1 3 1 1 1 2 3 3 3 3 3 4 5 5 5 5 8 8 8 8 8 8 8 9 10 11 10 10 10 10 11 11 11 11 12 11 11 11 11 11 11 11 11 12 12 12 13 13 13 13 13 13 13 13 13 13 10 9 10
9 9 8 8 6 0 5 4 3 4 4 4 5 8 2 3 3 4 6 8 9 7 8 9 8 8 7 3 2 3 4 5 5 5 6 6 7 8 7 6 6 6 8 9 11 10 10 10 10 10 11 11 12 12 12 12 12 12 13 13 13 13 13 13 13 13 13 12 12 12 12 12 12 13 13 13 13 13 13 13 13 13 13 12 8 8 10
9 10 9 8 4 2 4 2 2 3 3 3 7 7 2 3 4 6 6 8 9 8 9 8 7 7 8 6 4 4 6 8 9 9 9 10 12 11 10 9 9 10 12 12 13 12 12 12 12 12 12 13 13 13 13 13 13 13 14 14 14 15 15 15 15 15 15 14 13 13 13 13 13 13 13 14 14 13 14 14 12 10 8 6 8 11 12
8 8 9 8 4 2 5 4 3 4 5 5 4 4 4 5 8 9 9 10 9 9 10 9 9 10 11 10 10 10 10 10 11 12 13 14 15 14 13 13 12 13 14 14 14 14 14 14 14 13 14 14 14 14 14 14 14 15 15 16 16 16 16 16 16 16 16 15 15 14 14 13 14 14 14 14 14 13 13 11 6 2 5 9 11 13 14
7 8 8 8 4 1 6 7 4 2 4 5 6 7 7 9 10 10 10 10 10 10 11 11 12 13 14 14 13 12 13 13 13 14 15 16 16 16 15 15 15 16 16 16 16 16 15 16 16 15 15 16 16 16 16 16 15 16 17 17 17 18 18 18 17 17 17 17 16 15 15 14 15 14 13 13 13 11 10 8 5 3 6 10 14 16 16
5 7 6 3 1 1 4 6 4 3 5 7 9 9 10 10 10 10 10 10 11 12 12 13 14 14 15 15 14 14 15 15 15 15 16 17 18 17 17 17 18 18 19 19 18 18 17 17 16 16 16 17 18 18 18 18 17 17 18 18 18 19 19 19 19 18 18 17 17 16 16 15 15 15 14 13 11 8 6 7 8 8 10 13 16 16 14
5 7 6 5 4 6 7 7 6 8 9 9 11 12 11 10 10 10 10 11 13 13 13 14 15 14 15 16 16 16 16 16 17 18 20 22 22 21 21 21 21 21 21 21 20 19 19 19 18 18 18 19 20 20 20 19 19 19 19 19 19 20 20 19 19 19 18 18 17 17 17 15 16 16 13 10 8 7 6 8 11 13 14 15 15 15 14
8 10 10 11 10 10 9 8 9 10 11 11 12 13 12 11 10 10 11 12 14 15 15 16 15 15 17 17 17 17 17 17 19 20 22 24 24 24 24 24 23 23 23 22 21 21 21 21 21 21 20 21 22 22 21 20 21 21 20 20 20 20 20 20 20 19 19 19 18 18 18 17 16 13 9 7 8 8 9 11 14 17 17 16 16 15 15
9 9 9 10 10 10 10 11 12 12 13 13 11 11 11 11 12 12 13 15 16 17 17 17 17 18 18 18 18 17 17 18 19 19 21 23 25 25 25 24 23 24 23 22 22 22 22 22 21 21 22 22 22 22 22 22 21 21 22 22 21 20 20 20 20 20 20 20 19 19 18 15 12 8 7 8 9 9 11 14 17 18 18 17 17 16 15
8 9 11 12 13 13 12 11 10 11 12 12 12 12 12 13 14 15 16 17 17 17 17 19 20 20 20 19 19 17 16 17 17 17 20 23 24 25 25 25 24 24 23 23 23 23 23 22 22 22 22 23 23 23 23 23 23 23 24 23 22 22 21 21 20 20 20 18 18 18 15 9 6 6 7 8 9 11 14 16 19 19 17 17 17 16 15
9 10 11 11 11 12 11 11 11 11 12 14 15 16 16 17 17 18 18 19 18 17 18 19 19 20 21 20 20 19 18 17 17 18 21 23 24 24 25 25 24 24 24 24 24 24 24 23 22 22 23 23 23 23 23 24 24 24 24 23 23 23 22 21 21 20 19 18 17 15 8 5 6 6 7 9 10 11 13 16 19 19 17 17 16 15 15
8 8 9 10 10 10 11 12 14 15 15 16 16 16 17 17 17 16 16 17 17 17 18 18 17 18 19 19 20 20 18 17 18 21 23 23 23 23 24 24 23 23 23 24 23 24 24 23 23 23 22 22 22 22 22 22 22 22 22 22 22 22 21 21 21 19 16 14 11 7 8 10 10 9 9 10 13 15 16 18 20 20 19 17 16 16 17
9 10 12 12 11 11 12 14 16 15 15 15 16 16 16 16 16 15 16 16 17 17 18 19 19 17 16 18 19 18 17 18 21 22 22 21 21 21 22 21 21 22 23 23 24 24 24 23 23 23 22 22 22 22 22 22 22 22 21 20 20 20 20 20 20 16 10 5 5 10 12 13 15 18 20 18 18 21 22 23 22 21 19 18 16 16 17
11 12 13 11 12 13 14 15 16 14 13 14 14 15 15 15 16 17 17 16 17 17 17 20 22 20 18 19 19 17 16 19 21 20 20 21 21 21 21 21 22 23 24 24 25 25 24 23 23 23 23 23 22 22 21 21 21 22 22 21 20 20 19 18 18 14 9 9 12 15 16 16 17 21 23 22 20 21 22 21 19 18 17 15 13 13 14
10 12 12 12 13 14 13 13 13 12 13 14 14 15 16 17 18 19 18 16 17 18 16 17 20 21 20 19 19 17 17 19 20 20 21 21 21 21 21 21 22 23 24 25 25 25 25 25 24 24 25 25 24 23 22 22 22 22 22 21 21 20 19 17 14 11 12 15 16 17 17 18 19 20 19 18 17 18 20 20 18 16 14 12 11 12 12
10 11 12 13 13 12 11 11 11 12 15 16 15 15 18 19 20 20 19 18 18 19 18 17 19 21 20 19 19 18 18 19 20 20 20 21 20 20 20 21 22 23 23 24 24 25 25 24 22 22 24 25 25 24 24 23 24 24 24 22 21 20 17 13 11 13 15 18 19 19 19 21 23 21 19 18 16 16 19 19 17 15 13 12 11 12 12
9 10 11 12 12 11 10 11 12 13 15 16 15 16 19 21 21 21 20 20 20 20 19 17 17 18 17 16 16 16 16 17 17 17 18 19 19 19 20 21 22 22 22 22 23 22 20 19 17 17 19 20 21 21 22 23 23 24 23 19 15 14 14 14 14 16 19 22 23 23 23 24 24 22 21 22 19 15 15 16 15 13 12 11 11 11 10
9 9 9 10 11 11 12 13 14 14 15 16 16 17 18 19 19 18 16 15 15 14 14 14 14 14 13 13 14 14 14 15 15 15 16 17 17 18 19 19 19 18 18 16 13 11 11 11 11 11 12 12 13 14 15 15 14 13 13 12 14 16 18 19 20 22 25 26 26 26 25 24 25 25 25 22 16 12 13 14 13 11 10 10 10 9 8
9 10 10 10 11 12 13 13 13 12 13 14 15 15 15 14 13 12 10 11 11 11 11 13 14 13 13 13 13 13 13 13 14 14 15 16 17 17 17 16 15 13 9 5 5 9 11 11 10 9 8 7 4 0 3 5 8 10 12 14 17 20 22 23 25 27 27 27 28 29 28 26 25 23 21 17 14 12 12 12 10 10 9 9 9 9 8
10 10 10 10 11 12 11 10 10 10 10 11 11 11 12 11 10 9 10 11 10 10 11 13 13 12 12 13 13 12 12 12 12 12 13 13 13 13 13 11 8 4 4 6 9 11 12 12 11 8 7 8 9 12 14 16 17 17 18 20 22 24 25 27 28 29 29 30 31 31 28 25 22 19 17 16 14 12 11 9 9 9 9 9 10 11 10
12 12 11 10 10 10 10 8 8 8 9 9 9 9 10 10 10 10 10 10 9 10 11 12 12 11 12 13 12 11 10 9 9 9 9 8 8 7 5 3 4 8 9 10 11 13 14 14 13 12 11 12 15 18 21 22 23 24 24 25 26 27 28 29 30 30 30 31 30 26 23 21 19 17 16 14 12 10 9 9 10 10 10 12 12 9 8
13 13 11 9 9 10 9 8 8 8 8 7 8 8 9 10 10 10 10 10 10 11 12 12 12 12 13 13 11 10 8 7 8 9 10 10 8 6 6 9 13 14 13 12 13 15 17 16 15 16 17 18 20 23 24 24 25 26 27 28 29 29 29 30 30 30 29 27 24 21 19 18 17 16 15 13 11 11 10 10 10 10 10 9 6 5 6
11 11 11 9 9 9 9 7 6 6 6 6 7 8 10 11 11 11 11 12 13 13 13 13 14 15 15 13 12 12 10 8 8 11 14 13 10 8 10 13 15 15 16 16 17 19 20 18 17 18 20 21 22 22 23 22 23 23 23 23 24 24 26 28 27 25 24 21 19 19 19 18 16 14 13 12 11 11 11 10 9 7 6 5 8 7 3
9 8 8 8 7 6 6 5 5 5 5 7 8 9 10 11 12 12 13 14 14 14 15 16 17 18 16 14 14 16 15 11 9 11 15 14 10 9 12 15 16 17 19 21 22 23 22 21 20 21 22 23 23 23 21 20 20 20 20 20 21 22 23 24 22 20 19 19 19 19 18 16 13 12 12 11 10 9 8 7 6 4 3 5 7 5 3
8 7 6 6 5 5 5 5 5 5 6 6 7 8 10 11 11 12 13 14 14 14 16 18 19 19 17 17 18 18 18 16 14 14 15 14 13 14 17 19 20 20 22 24 25 23 22 22 23 23 23 23 23 22 21 19 18 19 19 19 19 20 20 19 17 16 17 17 17 16 15 13 11 9 8 8 8 7 7 6 6 4 3 3 5 4 4
7 4 4 4 5 6 7 6 6 6 7 6 5 6 9 10 11 11 12 12 13 14 16 19 20 19 18 18 18 18 18 18 18 17 16 16 18 22 24 24 22 21 21 23 24 22 20 22 23 23 23 24 24 22 20 18 17 17 18 18 17 17 16 15 15 15 15 16 16 16 15 14 13 11 9 9 9 9 9 8 8 6 5 4 4 3 3
4 3 4 5 6 7 7 7 7 6 6 6 6 7 8 9 10 10 10 10 12 14 17 18 18 17 17 18 18 19 20 19 18 19 19 20 22 25 27 26 24 22 19 19 19 19 20 20 21 21 23 25 24 22 21 19 17 16 16 16 15 15 14 14 14 15 15 15 15 14 13 12 12 11 10 10 10 10 9 8 7 6 4 4 3 3 3
3 5 5 6 6 6 6 7 7 6 6 6 7 7 7 8 8 9 8 8 10 12 13 13 13 13 15 17 17 19 21 21 21 21 23 23 24 26 27 25 23 21 18 16 16 18 20 19 18 18 21 22 22 21 22 20 17 16 16 16 16 15 15 14 13 14 14 13 13 12 11 11 11 10 10 10 10 10 9 9 7 5 4 4 4 4 5
3 5 6 6 5 5 6 6 6 6 6 6 6 6 6 5 5 6 7 7 8 9 10 11 11 12 13 14 15 16 18 20 21 21 22 23 24 24 23 23 23 22 19 16 15 17 20 20 18 18 19 19 18 19 20 20 18 16 15 16 16 15 14 13 13 13 14 13 13 13 12 12 11 11 10 10 10 9 10 9 7 5 4 5 5 5 6
4 5 5 5 4 4 5 5 4 4 5 6 7 7 6 6 5 6 7 7 8 9 10 10 10 10 11 12 13 13 15 17 19 19 19 20 21 19 18 21 24 25 22 18 17 18 19 19 18 18 18 18 17 17 17 19 19 17 15 15 16 15 14 13 12 12 12 12 12 12 12 12 12 11 10 9 9 9 8 8 6 5 5 5 6 6 5
4 4 5 4 3 3 3 3 3 4 4 5 6 7 7 7 6 6 7 7 8 9 10 11 10 10 10 10 11 11 12 15 17 18 18 18 17 16 15 17 20 23 21 19 19 21 21 21 20 18 17 18 18 18 17 16 17 16 16 15 15 14 13 12 12 12 12 12 11 12 11 11 11 10 10 9 9 8 7 7 6 6 6 6 6 5 5
3 4 4 3 3 2 2 2 3 3 4 4 5 5 6 6 6 6 7 7 8 8 9 10 10 10 9 9 10 10 11 12 13 15 17 18 17 15 13 13 16 20 20 18 17 19 21 22 23 22 18 17 17 18 17 16 16 16 16 15 15 13 12 12 11 12 12 12 12 11 11 10 10 10 9 8 8 8 8 7 7 7 7 6 6 6 5
4 4 4 4 3 2 1 1 2 2 3 4 4 5 5 5 5 6 7 8 8 8 8 9 9 9 10 10 9 10 10 10 10 11 13 15 17 16 14 12 14 18 19 17 16 17 18 19 22 23 21 18 18 18 17 17 17 16 16 15 14 13 12 11 11 11 12 12 12 11 11 10 10 9 8 8 8 8 8 7 7 7 7 7 6 6 5
7 6 6 5 4 3 2 2 1 1 2 3 3 3 4 4 5 6 6 7 8 9 9 9 9 9 10 10 11 10 11 11 10 9 9 10 13 15 16 14 14 17 18 17 15 16 17 18 19 20 20 19 19 18 17 16 16 16 15 15 14 13 13 12 12 12 12 12 11 11 11 10 10 9 9 9 9 8 8 8 8 7 7 7 7 7 6
9 9 9 7 6 5 4 3 2 2 2 2 2 2 3 3 4 5 5 6 7 8 8 9 9 9 9 9 10 10 11 11 12 11 10 9 9 11 13 14 15 17 18 16 15 15 17 19 19 19 19 18 17 17 16 16 15 15 15 14 14 14 13 13 12 12 11 11 11 11 10 10 9 9 9 9 9 9 9 8 8 8 8 8 8 8 7
10 11 11 10 9 7 6 4 3 3 3 2 2 2 2 3 3 4 5 5 6 6 7 8 9 9 9 8 7 8 9 11 12 12 11 10 9 9 10 12 14 15 17 17 15 15 16 18 19 20 19 18 16 15 15 15 14 14 14 13 13 13 13 12 11 11 11 11 11 10 10 9 9 9 9 9 9 9 8 8 8 8 8 8 8 8 8
11 12 12 12 11 9 7 6 5 5 5 3 2 3 2 1 2 3 4 4 5 6 7 7 8 9 9 9 8 8 8 8 9 10 10 10 9 8 9 10 11 12 14 16 16 16 15 17 18 18 18 17 15 14 14 14 13 13 13 12 12 12 12 11 11 11 11 10 10 10 9 9 9 9 9 9 9 8 8 8 8 7 8 8 8 8 8
13 13 13 13 12 10 9 8 7 7 6 4 2 3 3 1 1 2 2 2 3 4 5 6 7 8 9 9 10 10 9 8 8 9 9 9 8 9 9 10 10 9 10 11 14 15 15 16 17 17 16 15 14 14 14 14 13 13 12 12 12 11 11 10 10 9 9 9 9 9 9 9 8 8 8 8 8 8 8 8 7 7 7 7 8 8 8
14 14 13 13 13 11 10 9 8 7 6 5 4 4 4 3 3 2 2 1 2 3 4 5 5 6 7 8 9 10 10 9 8 8 8 8 8 8 8 10 11 11 9 9 10 12 14 15 16 16 15 14 13 13 13 13 13 12 12 11 11 11 10 10 9 9 8 8 8 8 8 8 8 8 8 8 7 7 7 7 8 9 9 8 7 7 7
13 13 13 13 14 13 12 10 9 8 7 6 5 5 5 5 4 3 3 2 2 3 4 4 5 5 6 7 8 8 8 9 8 8 7 7 8 8 7 8 10 11 10 9 9 10 11 12 13 13 13 12 12 12 11 11 11 11 11 10 10 10 10 10 9 9 8 8 7 7 7 7 7 6 6 6 7 7 7 7 8 9 9 9 9 9 8
13 14 14 15 15 14 12 11 10 8 7 7 6 6 5 5 3 3 3 1 1 2 4 4 4 5 5 6 6 6 6 6 6 6 6 6 6 6 7 7 7 8 9 8 8 9 10 10 11 11 11 11 11 11 11 10 10 10 10 10 9 9 8 8 8 8 8 7 7 6 6 6 5 5 5 5 6 7 7 7 7 7 8 8 9 10 10
15 15 15 15 14 14 13 12 10 8 7 7 7 7 6 5 3 5 4 2 2 1 4 4 4 5 5 5 5 5 5 5 5 5 5 5 5 5 6 6 6 7 7 7 7 8 8 9 10 10 10 10 9 10 9 9 9 9 9 9 9 8 8 7 7 7 7 6 6 6 5 4 5 5 5 5 5 6 7 7 7 7 7 8 9 11 11
Wind_Direction
263 267 271 272 272 274 275 271 268 268 268 267 264 262 264 269 268 269 279 287 284 281 282 277 265 249 243 237 229 224 207 189 190 187 181 185 183 170 155 143 134 125 117 109 101 94 88 88 90 90 89 89 89 84 79 76 70 66 63 55 53 53 51 45 9 345 336 325 314 303 290 274 258 253 253 253 249 245 242 241 241 242 243 242 241 239 236
269 268 269 270 270 270 270 267 263 262 262 262 263 263 264 264 264 267 275 280 280 279 279 280 282 281 269 252 239 231 224 216 209 203 203 208 205 195 173 152 138 127 120 117 109 97 86 81 81 81 81 87 93 89 80 76 70 62 53 44 33 22 17 14 350 329 319 317 317 309 301 291 279 270 264 261 258 254 251 248 247 246 246 244 242 241 239
274 275 276 274 271 270 270 266 262 260 259 259 259 261 263 263 264 268 272 274 276 279 280 276 272 270 269 257 243 237 233 227 221 218 221 223 220 214 190 160 147 137 127 119 111 103 95 88 84 82 76 74 91 90 77 70 63 47 35 21 3 349 344 341 328 316 311 308 304 301 298 294 288 284 281 277 273 267 257 251 247 247 248 245 242 242 238
268 272 273 272 273 273 270 265 262 261 260 261 262 262 263 264 267 272 274 271 271 274 273 272 270 266 261 252 245 243 236 231 231 229 227 224 220 215 200 177 161 149 134 119 108 100 98 98 94 87 76 59 76 75 55 45 40 24 12 351 336 330 326 324 320 315 313 307 300 297 294 290 290 288 287 284 278 270 262 255 249 246 246 244 241 242 237
271 271 271 275 280 278 272 270 270 267 263 263 263 260 261 263 264 267 267 266 276 284 281 281 283 277 269 265 264 261 250 241 239 235 231 227 217 208 206 191 163 147 133 118 108 94 85 88 70 48 23 27 56 54 31 31 16 352 339 325 322 319 313 314 316 313 309 301 297 297 293 290 289 285 280 276 272 270 264 257 251 247 245 241 238 240 236
271 274 279 282 271 259 262 291 305 287 278 270 267 267 269 269 268 276 284 284 291 296 294 292 286 279 279 292 301 295 280 261 248 240 237 233 215 200 201 190 160 143 124 107 99 90 74 54 27 353 325 9 55 263 254 318 323 319 315 307 307 306 303 304 305 302 299 295 292 292 290 288 286 281 278 274 269 267 262 257 253 248 245 242 238 235 233
270 276 276 265 257 256 262 275 306 317 308 294 285 280 277 275 279 291 295 293 295 295 295 303 301 291 287 287 285 283 277 263 253 250 245 231 204 194 192 173 135 116 122 116 86 47 3 342 309 282 267 267 280 269 262 281 291 293 296 297 297 295 296 298 298 294 290 290 290 290 288 286 283 280 278 275 269 266 262 257 253 249 245 244 240 231 228
264 267 254 249 263 270 251 242 238 237 264 277 279 273 270 274 292 301 295 290 294 295 290 296 306 305 296 282 276 287 287 265 252 255 252 230 201 199 201 188 158 121 283 264 267 298 301 297 286 282 293 297 288 281 277 276 277 279 286 291 291 290 292 292 291 288 285 285 285 286 285 283 282 281 279 276 271 267 264 258 254 251 247 244 241 234 229
257 259 255 257 271 267 243 243 293 325 280 294 300 285 280 271 284 311 311 295 286 290 291 289 296 306 299 275 259 21 39 18 338 326 331 307 205 212 225 227 221 232 260 267 267 274 282 283 284 289 290 285 281 279 276 273 273 274 279 281 282 285 286 286 285 281 279 278 279 282 283 282 281 280 280 278 273 268 264 260 254 251 247 246 244 238 231
252 259 262 258 262 263 245 93 61 49 11 1 337 289 283 252 242 316 329 306 287 285 296 299 300 303 292 270 240 122 118 111 27 5 11 33 295 307 311 277 264 254 256 274 287 288 282 278 277 278 276 274 273 270 266 266 267 269 272 276 279 282 284 285 285 281 279 280 281 281 282 282 282 282 279 277 275 268 263 260 258 254 250 249 247 242 234
249 253 258 255 256 270 62 74 68 60 39 21 331 276 272 51 17 343 342 323 306 298 306 309 303 291 282 278 350 35 357 210 349 304 279 270 284 287 275 271 274 276 284 292 288 283 278 274 274 274 272 270 268 267 266 264 263 265 269 274 276 278 282 284 283 281 281 281 281 280 280 280 280 279 277 275 273 267 262 259 259 256 253 248 240 234 221
248 248 253 257 257 272 75 65 40 37 28 359 295 271 275 59 12 328 330 323 317 313 313 312 298 285 287 302 29 9 312 286 279 279 279 279 279 278 277 280 289 294 291 286 282 280 277 276 276 274 271 268 266 265 265 263 262 263 266 269 272 275 278 280 279 278 278 276 276 277 278 279 278 275 274 272 270 266 262 261 261 259 255 243 205 173 182
247 248 253 257 255 69 67 61 27 1 331 283 267 273 332 15 308 304 311 306 307 307 302 300 292 290 300 309 314 301 280 272 274 277 278 277 277 282 289 296 300 295 288 284 283 282 279 277 276 272 269 267 265 264 263 262 262 263 265 268 270 272 274 275 275 275 274 274 274 274 275 277 275 271 269 267 264 262 260 259 262 262 246 205 154 150 171
250 252 259 260 251 40 18 344 315 293 269 255 276 312 328 311 303 311 310 302 300 298 293 291 292 293 293 292 291 291 284 278 278 279 279 279 279 284 289 291 289 286 282 281 281 278 276 275 273 270 267 265 265 265 264 263 264 266 268 269 270 270 271 272 272 272 271 269 269 271 272 272 270 267 266 263 260 260 257 251 245 188 150 152 148 147 152
254 253 258 263 253 28 6 342 325 294 279 303 332 327 305 301 305 305 300 298 298 296 292 290 291 294 293 288 286 287 285 282 279 278 278 281 283 286 288 288 287 286 285 283 281 279 277 275 273 271 269 268 268 267 266 266 268 269 269 269 269 270 271 271 271 270 269 266 265 265 265 265 264 262 259 258 257 253 243 227 208 174 163 163 159 149 139
259 250 250 256 191 31 338 325 309 302 307 315 318 307 297 301 303 298 294 295 295 297 298 296 294 294 293 290 287 284 280 280 281 280 281 283 284 287 289 289 291 291 288 284 282 280 278 276 274 272 270 270 270 268 268 269 270 269 268 267 267 267 267 269 269 268 266 265 263 263 263 263 261 257 254 256 255 245 222 209 206 200 180 161 152 147 140
278 270 277 299 297 289 301 306 297 295 296 296 295 293 290 290 292 292 294 293 293 295 296 294 293 291 289 289 288 286 284 282 282 282 282 282 283 284 284 284 286 286 285 285 285 283 281 280 279 276 273 271 270 269 269 269 267 266 266 264 263 264 264 265 265 264 264 264 263 263 264 264 263 263 259 248 234 220 210 207 202 193 178 160 148 145 143
287 277 276 286 292 295 301 300 294 293 293 292 291 288 286 288 291 292 292 292 293 293 291 289 288 287 287 287 285 284 285 283 281 282 283 283 283 283 283 284 285 285 285 285 285 283 282 280 278 277 275 271 269 269 267 266 264 264 263 261 260 261 261 262 263 264 265 265 263 263 264 263 266 268 254 219 211 213 212 208 199 188 176 162 149 143 142
284 280 279 288 294 295 295 293 291 291 289 290 292 290 290 295 296 294 293 292 291 290 288 286 283 281 282 283 281 279 280 280 279 279 279 279 280 281 283 286 288 287 286 284 283 283 282 280 279 278 276 273 271 270 268 266 264 262 261 260 258 258 258 259 261 262 262 263 264 264 262 261 261 250 214 201 207 207 201 196 188 177 167 157 151 146 141
274 281 287 292 292 290 290 290 290 292 293 297 302 302 299 298 294 292 292 290 288 288 286 285 284 283 281 280 280 279 279 279 279 279 279 281 283 284 286 287 287 287 286 286 285 284 284 283 281 279 277 274 272 270 268 266 263 262 261 259 257 257 256 256 258 259 260 261 263 263 261 253 236 216 203 201 199 193 192 187 177 168 158 150 148 144 137
279 281 287 295 297 294 293 292 295 303 308 308 307 305 300 296 293 292 291 290 289 289 288 287 286 285 283 281 281 280 279 278 280 282 285 286 287 287 287 287 287 287 286 285 286 286 286 286 284 280 277 275 272 270 269 267 265 263 260 258 256 254 253 254 256 256 256 258 258 254 238 173 161 185 200 197 183 175 180 176 162 151 143 139 137 134 131
281 289 301 310 308 298 296 300 305 310 309 304 302 301 298 295 294 295 295 294 293 291 289 287 285 284 284 282 280 279 280 282 284 286 286 286 286 286 286 287 287 287 287 288 289 289 288 288 287 284 281 278 274 271 269 267 266 263 260 255 251 249 248 251 251 248 252 260 254 219 160 139 140 143 150 162 159 149 149 149 142 134 130 129 130 132 131
292 302 309 312 305 295 296 302 305 306 306 305 306 306 305 304 304 304 302 301 301 298 295 293 290 287 288 287 283 282 282 284 286 287 287 290 292 293 294 294 293 292 292 292 291 289 289 289 287 285 283 280 276 272 269 266 263 260 257 253 250 247 246 246 245 245 248 243 182 155 149 145 137 127 123 126 133 134 134 134 131 128 127 126 131 138 135
297 299 303 306 300 297 301 304 305 307 311 313 312 311 310 310 309 307 305 303 302 301 299 296 294 291 289 288 286 286 286 287 289 293 297 299 299 298 298 297 295 293 292 291 291 290 291 289 287 285 282 279 275 272 268 264 260 256 253 250 248 247 244 242 241 236 213 179 161 153 151 147 136 129 126 121 117 120 125 128 128 127 126 128 134 141 142
299 300 306 307 301 300 303 304 306 312 317 318 315 312 311 310 308 306 303 299 297 297 297 297 296 293 290 288 288 289 291 292 295 300 301 299 298 297 296 295 294 293 292 292 292 292 291 291 290 287 283 278 275 273 270 266 262 258 253 248 245 244 242 240 232 205 165 152 151 150 147 139 132 131 130 124 115 114 120 128 133 135 136 140 143 145 148
307 308 311 307 300 300 304 307 311 317 319 317 314 311 310 310 307 303 299 295 295 294 292 291 292 292 292 293 295 297 298 299 301 302 298 295 296 296 294 294 294 294 294 294 294 294 295 296 295 290 283 277 272 269 265 260 256 252 249 246 244 240 233 220 199 174 154 145 145 145 138 132 130 128 122 119 119 118 118 120 123 127 133 140 144 144 146
320 321 320 313 307 307 312 314 314 314 313 313 313 310 310 309 306 301 296 293 293 294 293 297 302 305 305 308 310 311 307 305 306 303 297 295 295 293 292 293 294 294 296 296 296 298 302 302 297 290 283 277 271 264 258 253 249 246 242 235 225 212 197 180 165 157 149 145 144 142 136 132 132 128 122 122 125 122 116 117 120 124 129 137 145 148 146
326 325 322 314 308 308 309 308 307 308 311 313 313 312 312 313 310 305 301 303 308 313 318 324 328 328 325 324 321 315 309 304 302 298 295 294 294 293 294 296 297 298 301 302 306 319 332 330 317 305 298 292 281 267 256 248 239 230 218 196 176 169 166 161 154 148 144 143 142 140 135 131 129 128 130 134 135 128 122 124 127 131 135 142 153 160 158
330 325 320 313 308 306 306 307 310 315 319 321 321 322 325 329 329 328 333 340 341 338 337 338 336 332 327 323 317 310 305 302 301 300 298 297 297 299 299 298 297 299 305 326 11 19 13 6 357 349 345 345 349 123 164 161 155 152 150 149 148 148 146 144 141 139 137 137 135 131 129 127 127 130 135 138 137 133 131 131 135 140 143 147 156 168 181
325 321 317 313 311 309 311 317 322 326 332 337 337 335 335 339 342 344 348 349 345 340 338 335 332 329 328 324 318 312 309 309 309 307 304 302 302 302 300 297 298 322 34 48 34 18 14 19 25 28 33 47 71 91 99 103 109 113 115 118 123 127 130 131 131 130 130 129 128 128 128 129 132 135 135 134 136 137 136 142 151 153 153 162 175 187 193
322 319 315 315 319 321 325 332 333 338 348 352 347 344 346 349 350 349 348 346 344 342 341 339 337 338 337 333 328 322 320 324 328 326 326 329 329 323 320 350 65 73 63 45 26 18 22 28 31 38 53 68 81 88 91 92 95 98 101 105 110 116 121 123 124 124 124 125 126 128 130 131 132 133 133 137 145 149 152 164 175 175 175 184 191 190 173
322 321 322 328 333 333 335 342 347 355 6 7 0 3 7 6 4 2 0 359 358 358 357 357 357 352 346 347 351 349 339 337 345 351 360 10 16 26 61 78 77 71 58 44 33 28 26 23 23 35 53 66 76 82 86 89 92 96 99 101 104 108 112 115 117 119 121 123 128 133 136 137 139 142 146 153 162 167 171 179 185 186 183 175 153 120 121
324 324 328 336 339 335 339 353 6 15 22 23 24 25 21 19 20 18 14 15 16 13 10 6 360 354 352 1 16 17 7 359 0 6 11 17 27 54 74 76 72 65 57 47 40 34 28 21 21 35 49 57 63 70 77 85 93 100 101 101 101 103 108 114 118 122 127 133 138 141 141 142 144 147 154 164 172 174 177 178 178 179 170 123 88 83 116
319 319 328 338 342 342 352 13 31 39 36 35 37 33 23 20 21 20 17 18 16 11 5 360 356 357 2 14 26 28 26 22 16 10 10 15 29 61 75 73 69 63 55 47 40 35 29 26 32 45 54 57 58 58 58 66 84 98 103 105 107 111 118 124 128 132 136 138 136 135 137 139 142 147 157 167 169 163 161 160 158 158 147 104 85 69 12
322 329 347 3 17 36 48 51 55 57 50 39 32 26 20 19 20 18 17 16 10 3 358 354 354 359 10 21 27 29 29 29 24 16 14 22 39 57 64 62 58 54 48 42 38 33 28 29 39 53 63 65 64 61 56 57 72 89 97 101 105 110 116 122 122 119 117 115 114 113 113 111 111 121 135 140 132 116 98 85 80 80 78 76 79 67 23
339 1 31 45 60 75 79 74 70 68 62 52 36 25 21 21 21 18 16 13 6 358 354 353 354 1 12 20 25 27 27 28 27 25 25 33 46 54 55 51 45 42 40 35 30 27 26 29 37 50 62 66 64 63 62 62 67 77 84 88 92 93 95 97 95 91 88 90 94 97 97 94 89 85 87 91 89 84 79 74 69 67 60 50 54 56 33
11 60 84 91 94 94 86 74 68 65 58 47 39 30 22 19 17 16 14 10 0 354 353 354 356 1 9 16 22 26 27 27 30 33 35 40 47 51 50 45 39 37 35 28 19 20 27 31 34 44 58 62 61 61 64 65 66 70 74 76 78 80 80 81 83 83 82 85 90 92 93 93 88 80 77 78 75 72 73 71 64 61 63 56 47 43 34
73 101 110 111 106 94 72 53 45 44 45 43 41 34 26 21 16 12 10 5 355 351 356 0 2 7 14 18 22 24 24 24 29 35 39 42 47 49 48 43 37 34 31 23 17 24 34 38 37 41 49 55 58 62 67 68 66 66 69 69 69 70 72 72 76 79 80 81 84 84 83 85 85 80 76 75 72 69 66 63 56 50 44 42 43 43 37
105 115 111 101 87 75 63 45 30 22 27 35 40 41 37 31 20 11 10 7 0 359 7 15 20 26 29 27 26 25 22 21 27 33 37 40 46 51 49 42 36 33 33 28 26 33 40 42 42 43 45 46 50 58 66 70 67 64 66 68 67 67 67 68 72 76 77 78 80 80 77 75 74 74 73 73 72 71 66 60 53 45 33 33 38 37 31
110 117 110 96 80 71 65 54 39 30 28 28 31 34 34 30 23 16 13 11 9 11 15 18 23 33 36 34 34 35 31 27 28 30 33 37 42 46 44 35 29 29 33 34 32 35 40 43 45 45 44 43 46 53 60 64 64 63 64 66 65 65 66 67 71 76 78 79 80 80 78 75 73 71 71 71 71 70 68 62 54 45 40 39 38 34 27
126 131 128 124 118 99 83 69 62 57 47 38 38 40 38 33 27 22 15 10 10 18 24 23 22 27 34 37 40 43 44 42 38 35 35 38 41 43 44 33 23 24 32 36 33 33 38 43 46 46 42 42 48 53 56 59 62 63 63 64 64 64 65 66 68 71 74 75 76 76 77 77 75 71 68 68 67 66 65 61 51 44 41 39 35 31 24
149 154 151 149 142 120 100 88 71 56 47 45 48 49 45 38 32 28 24 16 11 17 29 31 28 30 36 40 42 42 46 53 54 50 48 46 43 44 47 38 23 24 34 38 35 35 39 43 47 49 47 44 47 53 56 59 62 64 64 63 63 63 64 65 67 70 71 72 73 74 73 75 75 73 70 69 66 62 58 54 47 41 36 33 30 27 20
173 183 191 185 167 147 129 121 99 76 62 55 51 48 46 41 33 30 31 26 19 18 24 28 31 36 42 45 46 43 40 43 51 58 60 58 51 45 43 34 23 26 35 39 38 39 41 42 46 51 53 51 51 55 58 59 61 64 65 65 65 65 64 63 64 67 68 69 69 70 70 69 70 70 68 66 63 59 55 52 47 41 35 30 27 24 17
189 198 208 205 188 181 200 213 187 117 81 67 55 47 47 48 40 32 30 29 24 22 22 23 26 31 38 44 48 47 40 35 35 42 53 59 53 44 37 31 26 30 36 41 43 43 43 43 47 52 54 52 52 54 56 58 60 63 64 66 66 66 63 60 60 63 65 67 68 68 68 67 66 65 65 64 62 59 56 54 50 44 38 34 29 25 19
201 204 209 210 203 199 207 212 190 137 108 91 73 44 33 43 46 37 33 33 32 29 27 27 26 26 31 40 49 53 50 45 42 40 43 50 49 40 35 33 33 33 37 42 44 44 44 47 51 55 56 55 53 53 54 56 58 60 61 63 64 64 63 62 61 61 63 65 68 68 67 67 67 67 66 65 62 60 57 53 49 45 40 35 30 25 20
209 207 206 209 212 211 210 206 185 165 168 165 137 96 49 36 43 45 40 40 40 38 38 38 34 30 27 30 40 53 58 56 53 51 54 60 60 49 38 37 38 39 41 44 44 42 43 48 52 53 53 54 55 56 56 55 56 57 58 58 60 61 61 62 64 64 64 66 69 70 69 70 71 71 72 70 65 59 53 49 47 44 39 34 30 24 20
214 210 205 207 213 213 207 198 192 195 207 212 168 120 99 43 40 55 53 49 50 51 49 48 46 42 37 34 34 37 44 50 54 54 54 58 63 56 41 33 36 42 46 49 49 50 52 55 54 52 50 50 51 53 54 54 55 56 57 56 57 58 58 60 63 66 68 70 72 72 72 72 72 73 73 70 64 57 50 45 42 38 32 29 26 21 18
212 210 203 203 209 209 199 196 203 209 212 212 171 136 135 130 96 86 73 62 70 73 64 58 55 51 48 46 45 41 39 44 53 51 43 42 50 54 47 40 42 49 54 54 54 56 58 58 55 52 51 50 51 51 51 51 51 53 55 56 56 56 56 58 60 63 65 68 71 72 72 72 72 73 70 67 63 58 50 42 37 33 29 25 21 18 17
209 209 204 203 207 205 196 198 209 214 205 194 177 160 163 176 178 159 137 110 94 85 75 71 70 63 56 55 55 51 49 53 60 60 51 43 43 46 45 41 41 45 52 57 57 55 53 53 52 50 49 49 50 50 51 52 52 53 54 56 57 57 57 59 60 62 64 67 69 71 72 72 71 70 67 63 60 57 51 41 36 34 32 27 23 21 20
207 208 207 206 206 202 197 200 209 208 199 192 183 173 184 205 204 161 125 116 116 101 83 75 75 71 63 59 58 55 55 59 63 64 64 60 55 52 49 43 39 39 43 50 54 51 46 44 43 45 47 49 50 49 49 52 55 55 55 55 57 58 58 59 60 62 64 65 66 70 71 69 67 68 66 60 55 54 51 42 35 33 31 28 28 29 27
207 208 210 210 205 200 199 205 210 204 193 191 188 184 197 214 196 133 121 151 185 134 113 100 89 83 77 71 65 60 57 58 58 57 58 64 69 67 62 56 51 48 47 49 52 54 51 47 44 43 45 49 51 49 48 51 55 57 56 55 55 56 56 57 59 59 59 61 65 66 63 61 65 68 62 56 54 53 48 41 36 34 30 28 31 36 38
213 210 211 212 208 201 201 207 209 202 193 194 193 191 200 210 183 142 143 196 253 156 124 114 101 91 88 85 83 78 68 61 62 60 54 54 61 64 61 58 57 55 53 55 57 58 58 57 54 50 47 47 48 48 49 51 54 56 56 55 56 57 59 63 66 64 60 59 59 55 56 75 88 75 52 42 51 55 46 38 36 38 34 30 35 44 49